Location: ??
(35.5672°N, 139.6509°E)
Time: 11:04:27
(UTC+00:00)

Cosmos 1933 Rocket - Pass Details

Date: 03 August 2024
Orbit: 602 x 627 km, 82.5° (Epoch: 08 September)

Event Time Altitude Azimuth Distance (km) Brightness Sun altitude
Exits shadow 17:53:11 49° 182° (S) 807 3.8 -21.3°
Maximum altitude 17:54:21 87° 96° (E) 632 3.5 -21.1°
Drops below altitude 10° 17:58:48 10° 8° (N) 2,000 6.8 -20.5°
Sets 18:01:02 0° 8° (N) 2,907 7.8 -20.1°
